Time,TemperatureF,DewpointF,PressureIn,WindDirection,WindDirectionDegrees,WindSpeedMPH,WindSpeedGustMPH,Humidity,HourlyPrecipIn,Conditions,Clouds,dailyrainin,SolarRadiationWatts/m^2,SoftwareType,DateUTC
2013-01-27 00:01:00,34.0,25.0,-100.00,SW,216,17.0,36.0,70,0.01,,,0.03,0.000000,,2013-01-27 07:01:00,
2013-01-27 00:14:00,34.0,25.0,-100.00,SW,216,17.0,36.0,70,0.01,,,0.03,0.000000,,2013-01-27 07:14:00,
2013-01-27 00:21:00,34.0,25.0,-100.00,SW,216,17.0,36.0,70,0.01,,,0.03,0.000000,,2013-01-27 07:21:00,
2013-01-27 00:31:00,34.0,25.0,-100.00,SW,216,17.0,36.0,70,0.01,,,0.03,0.000000,,2013-01-27 07:31:00,
2013-01-27 00:52:00,34.0,25.0,-100.00,SSW,212,21.0,37.0,70,0.00,,,0.03,0.000000,,2013-01-27 07:52:00,
2013-01-27 01:01:00,34.0,25.0,-100.00,SSW,212,21.0,37.0,70,0.00,,,0.03,0.000000,,2013-01-27 08:01:00,
2013-01-27 01:11:00,34.0,25.0,-100.00,SSW,212,21.0,37.0,70,0.00,,,0.03,0.000000,,2013-01-27 08:11:00,
2013-01-27 01:22:00,34.0,25.0,-100.00,SSW,212,21.0,37.0,70,0.00,,,0.03,0.000000,,2013-01-27 08:22:00,
2013-01-27 01:31:00,34.0,25.0,-100.00,SSW,212,21.0,37.0,70,0.00,,,0.03,0.000000,,2013-01-27 08:31:00,
2013-01-27 01:52:00,35.0,24.0,-100.00,SSW,209,13.0,40.0,63,0.00,,,0.03,0.000000,,2013-01-27 08:52:00,
2013-01-27 02:02:00,35.0,24.0,-100.00,SSW,209,13.0,40.0,63,0.00,,,0.03,0.000000,,2013-01-27 09:02:00,
2013-01-27 02:11:00,35.0,24.0,-100.00,SSW,209,13.0,40.0,63,0.00,,,0.03,0.000000,,2013-01-27 09:11:00,
2013-01-27 02:21:00,35.0,24.0,-100.00,SSW,209,13.0,40.0,63,0.00,,,0.03,0.000000,,2013-01-27 09:21:00,
2013-01-27 02:32:00,35.0,24.0,-100.00,SSW,209,13.0,40.0,63,0.00,,,0.03,0.000000,,2013-01-27 09:32:00,
2013-01-27 02:52:00,35.0,24.0,-100.00,SW,217,15.0,35.0,63,0.00,,,0.03,0.000000,,2013-01-27 09:52:00,
2013-01-27 03:01:00,35.0,24.0,-100.00,SW,217,15.0,35.0,63,0.00,,,0.03,0.000000,,2013-01-27 10:01:00,
2013-01-27 03:11:00,35.0,24.0,-100.00,SW,217,15.0,35.0,63,0.00,,,0.03,0.000000,,2013-01-27 10:11:00,
2013-01-27 03:21:00,35.0,24.0,-100.00,SW,217,15.0,35.0,63,0.00,,,0.03,0.000000,,2013-01-27 10:21:00,
2013-01-27 03:31:00,35.0,24.0,-100.00,SW,217,15.0,35.0,63,0.00,,,0.03,0.000000,,2013-01-27 10:31:00,
2013-01-27 03:52:00,34.0,24.0,-100.00,SW,219,17.0,35.0,67,0.00,,,0.03,0.000000,,2013-01-27 10:52:00,
2013-01-27 04:01:00,34.0,24.0,-100.00,SW,219,17.0,35.0,67,0.00,,,0.03,0.000000,,2013-01-27 11:01:00,
2013-01-27 04:11:00,34.0,24.0,-100.00,SW,219,17.0,35.0,67,0.00,,,0.03,0.000000,,2013-01-27 11:11:00,
2013-01-27 04:21:00,34.0,24.0,-100.00,SW,219,17.0,35.0,67,0.00,,,0.03,0.000000,,2013-01-27 11:21:00,
2013-01-27 04:32:00,34.0,24.0,-100.00,SW,219,17.0,35.0,67,0.00,,,0.03,0.000000,,2013-01-27 11:32:00,
2013-01-27 04:52:00,33.0,24.0,-100.00,SW,227,19.0,35.0,70,0.00,,,0.03,0.000000,,2013-01-27 11:52:00,
2013-01-27 05:02:00,33.0,24.0,-100.00,SW,227,19.0,35.0,70,0.00,,,0.03,0.000000,,2013-01-27 12:02:00,
2013-01-27 05:12:00,33.0,24.0,-100.00,SW,227,19.0,35.0,70,0.00,,,0.03,0.000000,,2013-01-27 12:12:00,
2013-01-27 05:21:00,33.0,24.0,-100.00,SW,227,19.0,35.0,70,0.00,,,0.03,0.000000,,2013-01-27 12:21:00,
2013-01-27 05:32:00,33.0,24.0,-100.00,SW,227,19.0,35.0,70,0.00,,,0.03,0.000000,,2013-01-27 12:32:00,
2013-01-27 05:52:00,34.0,24.0,-100.00,SW,228,20.0,38.0,67,0.00,,,0.03,0.000000,,2013-01-27 12:52:00,
2013-01-27 06:02:00,34.0,24.0,-100.00,SW,228,20.0,38.0,67,0.00,,,0.03,0.000000,,2013-01-27 13:02:00,
2013-01-27 06:11:00,34.0,24.0,-100.00,SW,228,20.0,38.0,67,0.00,,,0.03,0.000000,,2013-01-27 13:11:00,
2013-01-27 06:22:00,34.0,24.0,-100.00,SW,228,20.0,38.0,67,0.00,,,0.03,0.000000,,2013-01-27 13:22:00,
2013-01-27 06:32:00,34.0,24.0,-100.00,SW,228,20.0,38.0,67,0.00,,,0.03,0.000000,,2013-01-27 13:32:00,
2013-01-27 06:52:00,33.0,25.0,-100.00,SW,227,20.0,38.0,71,0.00,,,0.03,0.000000,,2013-01-27 13:52:00,
2013-01-27 07:02:00,33.0,25.0,-100.00,SW,227,20.0,38.0,71,0.00,,,0.03,0.000000,,2013-01-27 14:02:00,
2013-01-27 07:12:00,33.0,25.0,-100.00,SW,227,20.0,38.0,71,0.00,,,0.03,0.000000,,2013-01-27 14:12:00,
2013-01-27 07:22:00,33.0,25.0,-100.00,SW,227,20.0,38.0,71,0.00,,,0.03,0.000000,,2013-01-27 14:22:00,
2013-01-27 07:32:00,33.0,25.0,-100.00,SW,227,20.0,38.0,71,0.00,,,0.03,0.000000,,2013-01-27 14:32:00,
2013-01-27 08:12:00,33.0,24.0,-100.00,SW,233,26.0,48.0,70,0.00,,,0.03,3.000000,,2013-01-27 15:12:00,
2013-01-27 08:22:00,33.0,24.0,-100.00,SW,233,26.0,48.0,70,0.00,,,0.03,3.000000,,2013-01-27 15:22:00,
2013-01-27 08:32:00,33.0,24.0,-100.00,SW,233,26.0,48.0,70,0.00,,,0.03,3.000000,,2013-01-27 15:32:00,
2013-01-27 08:53:00,33.0,23.0,-100.00,SW,234,27.0,47.0,67,0.00,,,0.03,15.000000,,2013-01-27 15:53:00,
2013-01-27 09:02:00,33.0,23.0,-100.00,SW,234,27.0,47.0,67,0.00,,,0.03,15.000000,,2013-01-27 16:02:00,
2013-01-27 09:12:00,33.0,23.0,-100.00,SW,234,27.0,47.0,67,0.00,,,0.03,15.000000,,2013-01-27 16:12:00,
2013-01-27 09:21:00,33.0,23.0,-100.00,SW,234,27.0,47.0,67,0.00,,,0.03,15.000000,,2013-01-27 16:21:00,
2013-01-27 09:32:00,33.0,23.0,-100.00,SW,234,27.0,47.0,67,0.00,,,0.03,15.000000,,2013-01-27 16:32:00,
2013-01-27 10:02:00,34.0,23.0,-100.00,SW,231,26.0,59.0,64,0.00,,,0.03,199.000000,,2013-01-27 17:02:00,
2013-01-27 10:12:00,34.0,23.0,-100.00,SW,231,26.0,59.0,64,0.00,,,0.03,199.000000,,2013-01-27 17:12:00,
2013-01-27 10:22:00,34.0,23.0,-100.00,SW,231,26.0,59.0,64,0.00,,,0.03,199.000000,,2013-01-27 17:22:00,
2013-01-27 10:32:00,34.0,23.0,-100.00,SW,231,26.0,59.0,64,0.00,,,0.03,199.000000,,2013-01-27 17:32:00,
2013-01-27 10:53:00,37.0,22.0,-100.00,WSW,240,24.0,49.0,55,0.00,,,0.03,480.000000,,2013-01-27 17:53:00,
2013-01-27 11:02:00,37.0,22.0,-100.00,WSW,240,24.0,49.0,55,0.00,,,0.03,480.000000,,2013-01-27 18:02:00,
2013-01-27 11:12:00,37.0,22.0,-100.00,WSW,240,24.0,49.0,55,0.00,,,0.03,480.000000,,2013-01-27 18:12:00,
2013-01-27 11:22:00,37.0,22.0,-100.00,WSW,240,24.0,49.0,55,0.00,,,0.03,480.000000,,2013-01-27 18:22:00,
2013-01-27 11:32:00,37.0,22.0,-100.00,WSW,240,24.0,49.0,55,0.00,,,0.03,480.000000,,2013-01-27 18:32:00,
2013-01-27 11:52:00,37.0,22.0,-100.00,WSW,253,20.0,42.0,55,0.00,,,0.03,592.000000,,2013-01-27 18:52:00,
2013-01-27 12:02:00,37.0,22.0,-100.00,WSW,253,20.0,42.0,55,0.00,,,0.03,592.000000,,2013-01-27 19:02:00,
2013-01-27 12:12:00,37.0,22.0,-100.00,WSW,253,20.0,42.0,55,0.00,,,0.03,592.000000,,2013-01-27 19:12:00,
2013-01-27 12:22:00,37.0,22.0,-100.00,WSW,253,20.0,42.0,55,0.00,,,0.03,592.000000,,2013-01-27 19:22:00,
2013-01-27 12:32:00,37.0,22.0,-100.00,WSW,253,20.0,42.0,55,0.00,,,0.03,592.000000,,2013-01-27 19:32:00,
2013-01-27 12:52:00,38.0,22.0,-100.00,SW,234,20.0,38.0,52,0.00,,,0.03,643.000000,,2013-01-27 19:52:00,
2013-01-27 13:02:00,38.0,22.0,-100.00,SW,234,20.0,38.0,52,0.00,,,0.03,643.000000,,2013-01-27 20:02:00,
2013-01-27 13:12:00,38.0,22.0,-100.00,SW,234,20.0,38.0,52,0.00,,,0.03,643.000000,,2013-01-27 20:12:00,
2013-01-27 13:22:00,38.0,22.0,-100.00,SW,234,20.0,38.0,52,0.00,,,0.03,643.000000,,2013-01-27 20:22:00,
2013-01-27 13:32:00,38.0,22.0,-100.00,SW,234,20.0,38.0,52,0.00,,,0.03,643.000000,,2013-01-27 20:32:00,
2013-01-27 13:52:00,38.0,23.0,-100.00,WSW,243,15.0,37.0,54,0.00,,,0.03,627.000000,,2013-01-27 20:52:00,
2013-01-27 14:02:00,38.0,23.0,-100.00,WSW,243,15.0,37.0,54,0.00,,,0.03,627.000000,,2013-01-27 21:02:00,
2013-01-27 14:12:00,38.0,23.0,-100.00,WSW,243,15.0,37.0,54,0.00,,,0.03,627.000000,,2013-01-27 21:12:00,
2013-01-27 14:22:00,38.0,23.0,-100.00,WSW,243,15.0,37.0,54,0.00,,,0.03,627.000000,,2013-01-27 21:22:00,
2013-01-27 14:33:00,38.0,23.0,-100.00,WSW,243,15.0,37.0,54,0.00,,,0.03,627.000000,,2013-01-27 21:33:00,
2013-01-27 14:52:00,40.0,23.0,-100.00,WSW,246,11.0,24.0,51,0.00,,,0.03,527.000000,,2013-01-27 21:52:00,
2013-01-27 15:02:00,40.0,23.0,-100.00,WSW,246,11.0,24.0,51,0.00,,,0.03,527.000000,,2013-01-27 22:02:00,
2013-01-27 15:12:00,40.0,23.0,-100.00,WSW,246,11.0,24.0,51,0.00,,,0.03,527.000000,,2013-01-27 22:12:00,
2013-01-27 15:22:00,40.0,23.0,-100.00,WSW,246,11.0,24.0,51,0.00,,,0.03,527.000000,,2013-01-27 22:22:00,
2013-01-27 15:32:00,40.0,23.0,-100.00,WSW,246,11.0,24.0,51,0.00,,,0.03,527.000000,,2013-01-27 22:32:00,
2013-01-27 15:52:00,38.0,21.0,-100.00,SW,216,12.0,25.0,50,0.00,,,0.03,258.000000,,2013-01-27 22:52:00,
2013-01-27 16:02:00,38.0,21.0,-100.00,SW,216,12.0,25.0,50,0.00,,,0.03,258.000000,,2013-01-27 23:02:00,
2013-01-27 16:12:00,38.0,21.0,-100.00,SW,216,12.0,25.0,50,0.00,,,0.03,258.000000,,2013-01-27 23:12:00,
2013-01-27 16:21:00,38.0,21.0,-100.00,SW,216,12.0,25.0,50,0.00,,,0.03,258.000000,,2013-01-27 23:21:00,
2013-01-27 16:32:00,38.0,21.0,-100.00,SW,216,12.0,25.0,50,0.00,,,0.03,258.000000,,2013-01-27 23:32:00,
2013-01-27 16:53:00,35.0,20.0,-100.00,SSW,212,12.0,24.0,55,0.00,,,0.03,93.000000,,2013-01-27 23:53:00,
2013-01-27 17:02:00,35.0,20.0,-100.00,SSW,212,12.0,24.0,55,0.00,,,0.03,93.000000,,2013-01-28 00:02:00,
2013-01-27 17:11:00,35.0,20.0,-100.00,SSW,212,12.0,24.0,55,0.00,,,0.03,93.000000,,2013-01-28 00:11:00,
2013-01-27 17:21:00,35.0,20.0,-100.00,SSW,212,12.0,24.0,55,0.00,,,0.03,93.000000,,2013-01-28 00:21:00,
2013-01-27 17:32:00,35.0,20.0,-100.00,SSW,212,12.0,24.0,55,0.00,,,0.03,93.000000,,2013-01-28 00:32:00,
2013-01-27 17:52:00,33.0,21.0,-100.00,SSW,199,13.0,27.0,62,0.00,,,0.03,9.000000,,2013-01-28 00:52:00,
2013-01-27 18:02:00,33.0,21.0,-100.00,SSW,199,13.0,27.0,62,0.00,,,0.03,9.000000,,2013-01-28 01:02:00,
2013-01-27 18:11:00,33.0,21.0,-100.00,SSW,199,13.0,27.0,62,0.00,,,0.03,9.000000,,2013-01-28 01:11:00,
2013-01-27 18:22:00,33.0,21.0,-100.00,SSW,199,13.0,27.0,62,0.00,,,0.03,9.000000,,2013-01-28 01:22:00,
2013-01-27 18:32:00,33.0,21.0,-100.00,SSW,199,13.0,27.0,62,0.00,,,0.03,9.000000,,2013-01-28 01:32:00,
2013-01-27 18:52:00,33.0,18.0,-100.00,SSW,193,12.0,25.0,54,0.00,,,0.03,1.000000,,2013-01-28 01:52:00,
2013-01-27 19:02:00,33.0,18.0,-100.00,SSW,193,12.0,25.0,54,0.00,,,0.03,1.000000,,2013-01-28 02:02:00,
2013-01-27 19:11:00,33.0,18.0,-100.00,SSW,193,12.0,25.0,54,0.00,,,0.03,1.000000,,2013-01-28 02:11:00,
2013-01-27 19:22:00,33.0,18.0,-100.00,SSW,193,12.0,25.0,54,0.00,,,0.03,1.000000,,2013-01-28 02:22:00,
2013-01-27 19:32:00,33.0,18.0,-100.00,SSW,193,12.0,25.0,54,0.00,,,0.03,1.000000,,2013-01-28 02:32:00,
2013-01-27 19:52:00,34.0,16.0,-100.00,SSW,199,12.0,20.0,47,0.00,,,0.03,0.000000,,2013-01-28 02:52:00,
2013-01-27 20:02:00,34.0,16.0,-100.00,SSW,199,12.0,20.0,47,0.00,,,0.03,0.000000,,2013-01-28 03:02:00,
2013-01-27 20:12:00,34.0,16.0,-100.00,SSW,199,12.0,20.0,47,0.00,,,0.03,0.000000,,2013-01-28 03:12:00,
2013-01-27 20:22:00,34.0,16.0,-100.00,SSW,199,12.0,20.0,47,0.00,,,0.03,0.000000,,2013-01-28 03:22:00,
2013-01-27 20:32:00,34.0,16.0,-100.00,SSW,199,12.0,20.0,47,0.00,,,0.03,0.000000,,2013-01-28 03:32:00,
2013-01-27 20:53:00,34.0,12.0,-100.00,SSW,196,10.0,23.0,39,0.00,,,0.03,0.000000,,2013-01-28 03:53:00,
2013-01-27 21:02:00,34.0,12.0,-100.00,SSW,196,10.0,23.0,39,0.00,,,0.03,0.000000,,2013-01-28 04:02:00,
2013-01-27 21:11:00,34.0,12.0,-100.00,SSW,196,10.0,23.0,39,0.00,,,0.03,0.000000,,2013-01-28 04:11:00,
2013-01-27 21:22:00,34.0,12.0,-100.00,SSW,196,10.0,23.0,39,0.00,,,0.03,0.000000,,2013-01-28 04:22:00,
2013-01-27 21:32:00,34.0,12.0,-100.00,SSW,196,10.0,23.0,39,0.00,,,0.03,0.000000,,2013-01-28 04:32:00,
2013-01-27 21:52:00,33.0,13.0,-100.00,SSW,212,12.0,27.0,44,0.00,,,0.03,0.000000,,2013-01-28 04:52:00,
2013-01-27 22:04:00,33.0,13.0,-100.00,SSW,212,12.0,27.0,44,0.00,,,0.03,0.000000,,2013-01-28 05:04:00,
2013-01-27 22:11:00,33.0,13.0,-100.00,SSW,212,12.0,27.0,44,0.00,,,0.03,0.000000,,2013-01-28 05:11:00,
2013-01-27 22:21:00,33.0,13.0,-100.00,SSW,212,12.0,27.0,44,0.00,,,0.03,0.000000,,2013-01-28 05:21:00,
2013-01-27 22:32:00,33.0,13.0,-100.00,SSW,212,12.0,27.0,44,0.00,,,0.03,0.000000,,2013-01-28 05:32:00,
2013-01-27 22:52:00,31.0,13.0,-100.00,South,189,14.0,29.0,47,0.00,,,0.01,0.000000,,2013-01-28 05:52:00,
2013-01-27 23:02:00,31.0,13.0,-100.00,South,189,14.0,29.0,47,0.00,,,0.01,0.000000,,2013-01-28 06:02:00,
2013-01-27 23:11:00,31.0,13.0,-100.00,South,189,14.0,29.0,47,0.00,,,0.01,0.000000,,2013-01-28 06:11:00,
2013-01-27 23:22:00,31.0,13.0,-100.00,South,189,14.0,29.0,47,0.00,,,0.01,0.000000,,2013-01-28 06:22:00,
2013-01-27 23:32:00,31.0,13.0,-100.00,South,189,14.0,29.0,47,0.00,,,0.01,0.000000,,2013-01-28 06:32:00,
2013-01-27 23:52:00,31.0,18.0,-100.00,SSW,200,14.0,28.0,57,0.00,,,-99.99,0.000000,,2013-01-28 06:52:00,